Meteo orario Goenka

Oggi, 12 Aprile, Lunedi

Tempo Temperatura Precipitazioni Vento Pressione Umidità
00:00 +7°C° 0 mm 3 m/s 753 mm Hg 74%
01:00 +7°C° 0 mm 3 m/s 754 mm Hg 76%
02:00 +7°C° 0 mm 3 m/s 754 mm Hg 76%
03:00 +5°C° 0 mm 3 m/s 753 mm Hg 77%
04:00 +5°C° 0 mm 3 m/s 753 mm Hg 78%
05:00 +5°C° 0 mm 2 m/s 753 mm Hg 79%
06:00 +7°C° 0 mm 3 m/s 753 mm Hg 74%
07:00 +8°C° 0 mm 3 m/s 753 mm Hg 68%
08:00 +10°C° 0 mm 4 m/s 753 mm Hg 63%
09:00 +11°C° 0 mm 4 m/s 752 mm Hg 57%
10:00 +12°C° 0 mm 5 m/s 752 mm Hg 51%
11:00 +14°C° 0 mm 5 m/s 752 mm Hg 45%
12:00 +14°C° 0 mm 5 m/s 751 mm Hg 42%
13:00 +15°C° 0 mm 5 m/s 751 mm Hg 39%
14:00 +15°C° 0 mm 4 m/s 750 mm Hg 36%
15:00 +14°C° 0 mm 4 m/s 750 mm Hg 41%
16:00 +14°C° 0 mm 4 m/s 750 mm Hg 46%
17:00 +13°C° 0 mm 4 m/s 749 mm Hg 52%
18:00 +12°C° 0 mm 4 m/s 749 mm Hg 64%
19:00 +10°C° 0 mm 4 m/s 750 mm Hg 75%
20:00 +8°C° 0 mm 4 m/s 750 mm Hg 87%
21:00 +9°C° 0.1 mm 3 m/s 750 mm Hg 89%
22:00 +8°C° 0.1 mm 2 m/s 749 mm Hg 92%
23:00 +8°C° 0.1 mm 2 m/s 749 mm Hg 94%

Domani, 13 Aprile, Martedi

Tempo Temperatura Precipitazioni Vento Pressione Umidità
00:00 +8°C° 0 mm 2 m/s 749 mm Hg 94%
01:00 +9°C° 0 mm 1 m/s 749 mm Hg 94%
02:00 +9°C° 0 mm 1 m/s 749 mm Hg 95%
03:00 +8°C° 0 mm 1 m/s 749 mm Hg 95%
04:00 +8°C° 0 mm 1 m/s 748 mm Hg 95%
05:00 +8°C° 0 mm 1 m/s 748 mm Hg 95%
06:00 +9°C° 0 mm 1 m/s 748 mm Hg 91%
07:00 +10°C° 0 mm 1 m/s 748 mm Hg 87%
08:00 +11°C° 0 mm 1 m/s 748 mm Hg 84%
09:00 +12°C° 0 mm 1 m/s 748 mm Hg 81%
10:00 +12°C° 0 mm 1 m/s 748 mm Hg 78%
11:00 +13°C° 0 mm 2 m/s 748 mm Hg 76%
12:00 +13°C° 0.1 mm 1 m/s 748 mm Hg 79%
13:00 +13°C° 0.1 mm 1 m/s 748 mm Hg 82%
14:00 +12°C° 0.1 mm 1 m/s 748 mm Hg 86%
15:00 +12°C° 0.1 mm 1 m/s 747 mm Hg 88%
16:00 +12°C° 0.1 mm 1 m/s 747 mm Hg 89%
17:00 +11°C° 0.1 mm 0 m/s 746 mm Hg 91%
18:00 +12°C° 0.4 mm 1 m/s 746 mm Hg 93%
19:00 +11°C° 0.4 mm 1 m/s 746 mm Hg 95%
20:00 +10°C° 0.4 mm 2 m/s 746 mm Hg 96%
21:00 +10°C° 0.2 mm 2 m/s 746 mm Hg 97%
22:00 +10°C° 0.2 mm 2 m/s 746 mm Hg 97%
23:00 +10°C° 0.2 mm 2 m/s 745 mm Hg 97%

Dopodomani, 14 Aprile, Mercoledi

Tempo Temperatura Precipitazioni Vento Pressione Umidità
00:00 +9°C° 0.2 mm 3 m/s 745 mm Hg 97%
01:00 +9°C° 0.2 mm 3 m/s 745 mm Hg 97%
02:00 +9°C° 0.2 mm 3 m/s 745 mm Hg 97%
03:00 +9°C° 0.1 mm 3 m/s 745 mm Hg 97%
04:00 +9°C° 0.1 mm 3 m/s 745 mm Hg 97%
05:00 +9°C° 0.1 mm 3 m/s 745 mm Hg 96%
06:00 +9°C° 0 mm 2 m/s 745 mm Hg 95%
07:00 +9°C° 0 mm 2 m/s 745 mm Hg 94%
08:00 +9°C° 0 mm 2 m/s 745 mm Hg 93%
09:00 +10°C° 0 mm 2 m/s 745 mm Hg 88%
10:00 +12°C° 0 mm 2 m/s 745 mm Hg 83%
11:00 +13°C° 0 mm 2 m/s 745 mm Hg 77%
12:00 +13°C° 0.2 mm 2 m/s 745 mm Hg 74%
13:00 +12°C° 0.2 mm 3 m/s 745 mm Hg 70%
14:00 +13°C° 0.2 mm 3 m/s 744 mm Hg 67%
15:00 +13°C° 0.1 mm 3 m/s 744 mm Hg 69%
16:00 +13°C° 0.1 mm 2 m/s 744 mm Hg 71%
17:00 +13°C° 0.1 mm 2 m/s 744 mm Hg 73%
18:00 +12°C° 0.1 mm 2 m/s 744 mm Hg 78%
19:00 +11°C° 0.1 mm 1 m/s 744 mm Hg 82%
20:00 +11°C° 0.1 mm 1 m/s 745 mm Hg 87%
21:00 +10°C° 0.1 mm 1 m/s 745 mm Hg 88%
22:00 +10°C° 0.1 mm 1 m/s 744 mm Hg 90%
23:00 +10°C° 0.1 mm 1 m/s 744 mm Hg 91%

15 Aprile, Giovedi

Tempo Temperatura Precipitazioni Vento Pressione Umidità
00:00 +10°C° 0.1 mm 1 m/s 744 mm Hg 92%
01:00 +10°C° 0.1 mm 1 m/s 744 mm Hg 93%
02:00 +10°C° 0.1 mm 1 m/s 744 mm Hg 93%
03:00 +10°C° 1.2 mm 1 m/s 744 mm Hg 94%
04:00 +9°C° 1.2 mm 1 m/s 744 mm Hg 96%
05:00 +9°C° 1.2 mm 1 m/s 744 mm Hg 97%
06:00 +10°C° 0.4 mm 1 m/s 744 mm Hg 95%
07:00 +10°C° 0.4 mm 1 m/s 744 mm Hg 93%
08:00 +10°C° 0.4 mm 1 m/s 745 mm Hg 91%
09:00 +11°C° 0.1 mm 1 m/s 745 mm Hg 87%
10:00 +12°C° 0.1 mm 1 m/s 745 mm Hg 82%
11:00 +12°C° 0.1 mm 1 m/s 745 mm Hg 77%
12:00 +13°C° 0.2 mm 2 m/s 744 mm Hg 75%
13:00 +13°C° 0.2 mm 2 m/s 744 mm Hg 74%
14:00 +12°C° 0.2 mm 3 m/s 744 mm Hg 72%
15:00 +12°C° 0.2 mm 3 m/s 744 mm Hg 74%
16:00 +12°C° 0.2 mm 3 m/s 744 mm Hg 76%
17:00 +12°C° 0.2 mm 4 m/s 744 mm Hg 78%
18:00 +11°C° 0.3 mm 4 m/s 744 mm Hg 83%
19:00 +10°C° 0.3 mm 4 m/s 744 mm Hg 88%
20:00 +8°C° 0.3 mm 4 m/s 744 mm Hg 93%
21:00 +8°C° 0.6 mm 4 m/s 744 mm Hg 93%
22:00 +9°C° 0.6 mm 3 m/s 744 mm Hg 94%
23:00 +9°C° 0.6 mm 3 m/s 743 mm Hg 94%

16 Aprile, Venerdi

Tempo Temperatura Precipitazioni Vento Pressione Umidità
00:00 +9°C° 0.4 mm 3 m/s 743 mm Hg 94%
01:00 +9°C° 0.4 mm 3 m/s 743 mm Hg 94%
02:00 +9°C° 0.4 mm 3 m/s 743 mm Hg 94%
03:00 +9°C° 0.1 mm 3 m/s 743 mm Hg 94%
04:00 +9°C° 0.1 mm 3 m/s 743 mm Hg 93%
05:00 +8°C° 0.1 mm 4 m/s 743 mm Hg 93%
06:00 +10°C° 0 mm 4 m/s 743 mm Hg 90%
07:00 +9°C° 0 mm 5 m/s 744 mm Hg 86%
08:00 +10°C° 0 mm 5 m/s 744 mm Hg 83%
09:00 +10°C° 0 mm 6 m/s 744 mm Hg 81%
10:00 +11°C° 0 mm 6 m/s 744 mm Hg 78%
11:00 +11°C° 0 mm 6 m/s 744 mm Hg 76%
12:00 +11°C° 0.1 mm 6 m/s 744 mm Hg 76%
13:00 +11°C° 0.1 mm 6 m/s 744 mm Hg 77%
14:00 +11°C° 0.1 mm 6 m/s 744 mm Hg 78%
15:00 +11°C° 0.1 mm 7 m/s 744 mm Hg 80%
16:00 +11°C° 0.1 mm 7 m/s 745 mm Hg 82%
17:00 +10°C° 0.1 mm 7 m/s 745 mm Hg 84%
18:00 +10°C° 0.7 mm 7 m/s 745 mm Hg 86%
19:00 +9°C° 0.7 mm 6 m/s 745 mm Hg 89%
20:00 +9°C° 0.7 mm 6 m/s 746 mm Hg 91%
21:00 +8°C° 0 mm 5 m/s 746 mm Hg 92%
22:00 +8°C° 0 mm 5 m/s 746 mm Hg 93%
23:00 +8°C° 0 mm 5 m/s 746 mm Hg 94%

17 Aprile, Sabato

Tempo Temperatura Precipitazioni Vento Pressione Umidità
00:00 +8°C° 0.2 mm 5 m/s 747 mm Hg 94%
01:00 +8°C° 0.2 mm 5 m/s 747 mm Hg 93%
02:00 +8°C° 0.2 mm 5 m/s 747 mm Hg 92%
03:00 +8°C° 0 mm 5 m/s 748 mm Hg 92%
04:00 +8°C° 0 mm 5 m/s 748 mm Hg 91%
05:00 +8°C° 0 mm 4 m/s 749 mm Hg 91%
06:00 +8°C° 0 mm 5 m/s 749 mm Hg 89%
07:00 +8°C° 0 mm 5 m/s 749 mm Hg 87%
08:00 +9°C° 0 mm 6 m/s 750 mm Hg 84%
09:00 +9°C° 0 mm 6 m/s 750 mm Hg 84%
10:00 +9°C° 0 mm 6 m/s 751 mm Hg 84%
11:00 +9°C° 0 mm 6 m/s 751 mm Hg 83%
12:00 +9°C° 0 mm 6 m/s 751 mm Hg 81%
13:00 +9°C° 0 mm 6 m/s 751 mm Hg 79%
14:00 +10°C° 0 mm 6 m/s 752 mm Hg 76%
15:00 +9°C° 0 mm 6 m/s 752 mm Hg 79%
16:00 +9°C° 0 mm 6 m/s 752 mm Hg 81%
17:00 +8°C° 0 mm 6 m/s 753 mm Hg 83%
18:00 +8°C° 0 mm 5 m/s 753 mm Hg 82%
19:00 +8°C° 0 mm 4 m/s 753 mm Hg 81%
20:00 +8°C° 0 mm 4 m/s 753 mm Hg 80%
21:00 +8°C° 0 mm 4 m/s 753 mm Hg 77%
22:00 +8°C° 0 mm 5 m/s 753 mm Hg 74%
23:00 +8°C° 0 mm 5 m/s 753 mm Hg 71%
Mostrare altro

Abbiamo bisogno del tuo consenso

Meteoprog e i nostri fornitori di servizi possono memorizzare e accedere a dati personali come cookie, identificatori di dispositivi o altre tecnologie simili sul tuo dispositivo e possono elaborare tali dati per personalizzare i contenuti e gli annunci, nonché fornire funzionalità dei social media e analizzarne il traffico.

  • Archiviare e/o accedere alle informazioni sul tuo dispositivo

    Cookie, identificatori di dispositivi o altre informazioni possono essere memorizzati o resi accessibili sul tuo dispositivo per le finalità sopra indicate.

  • Annunci e contenuti personalizzati, misurazione di annunci e contenuti, approfondimenti sul pubblico e sviluppo di prodotti

    Gli annunci e i contenuti possono essere personalizzati in base a un profilo. È possibile aggiungere più dati per personalizzare meglio annunci e contenuti. È possibile misurare il rendimento degli annunci e dei contenuti. È possibile ricavare informazioni sul pubblico che ha visto gli annunci e i contenuti. Tali dati possono essere utilizzati per sviluppare o migliorare l'esperienza, i sistemi e il software dell'utente.

Cliccando su “Accetto”, acconsenti all'uso di cookie, identificatori di dispositivo, web beacon o altre tecnologie simili. Puoi modificare le impostazioni nel browser del tuo dispositivo.

Per determinati scopi, è possibile fare affidamento su interessi legali, piuttosto che sul consenso. Puoi approfondire questo argomento consultando la nostra Informativa sulla privacy e sui cookie.